Regional Weather Roundup
Issued by NWS

Home | Current Version | Previous Version | Text Only | Print | Product List | Glossary Off
Versions: 1 2 3 4 5 6 7 8 9 10 11 12 13 14 15 16 17 18 19 20 21 22 23 24 25 26 27 28 29 30 31 32 33 34 35 36 37 38 39 40 41 42 43 44 45 46 47 48 49 50

687
ASUS43 KMKX 192200
RWRWI

WISCONSIN REGIONAL WEATHER ROUNDUP
NATIONAL WEATHER SERVICE MILWAUKEE/SULLIVAN WI
500 PM CDT THU APR 19 2018

NOTE: "FAIR" INDICATES FEW OR NO CLOUDS BELOW 12,000 FEET WITH NO
SIGNIFICANT WEATHER AND/OR OBSTRUCTIONS TO VISIBILITY.

WIZ001-002-006>008-014>016-023>028-192300-
NORTHWEST WISCONSIN

CITY           SKY/WX    TMP DP  RH WIND       PRES   REMARKS
SUPERIOR ARPT  FAIR      57  17  20 W6        30.38F
ASHLAND        FAIR      54   4  13 CALM      30.40F
HAYWARD        FAIR      54  11  18 VRB3      30.40S
SIREN          FAIR      53  16  22 W5        30.41F
CUMBERLAND     FAIR      46  14  27 SW6       30.42S
RICE LAKE      FAIR      50  16  26 SW6       30.44F
CHETEK         FAIR      50  17  26 W5        30.43S
LADYSMITH      FAIR      51  16  25 NW7       30.42S
EAU CLAIRE     NOT AVBL
MENOMONIE      FAIR      51  19  27 W6        30.44F
NEW RICHMOND   FAIR      48  19  32 NW6       30.44F
OSCEOLA        FAIR      51  17  26 N5        30.46F
$$

WIZ003>005-009-010-017-018-192300-
NORTH CENTRAL WISCONSIN

CITY           SKY/WX    TMP DP  RH WIND       PRES   REMARKS
MANITOWISH WTR FAIR      49   8  19 N5        30.37F
ARBOR VITAE    FAIR      52   9  17 N5        30.37S
WOODRUFF       FAIR      52   9  17 N5        30.37S
RHINELANDER    FAIR      51   9  18 NW7       30.36S
EAGLE RIVER    FAIR      49   1  13 N6        30.36S
LAND O LAKES   FAIR      48   4  16 N9        30.38S
PHILLIPS       FAIR      51  11  20 NW6       30.38S
TOMAHAWK       FAIR      52   5  14 N8        30.37S
MEDFORD        FAIR      49  16  26 W6        30.38S
MERRILL          N/A     54  10  17 NE3       30.36F
$$

WIZ029-030-035-036-043>047-192300-
CENTRAL WISCONSIN

CITY           SKY/WX    TMP DP  RH WIND       PRES   REMARKS
WAUSAU         FAIR      48  20  32 W12       30.35F
MOSINEE        MOSUNNY   46  19  34 W10       30.39S
MARSHFIELD     FAIR      47  20  34 W9        30.39S
STEVENS POINT  FAIR      47  20  34 W10G16    30.39S
WAUPACA        FAIR      52  20  29 W12       30.38S
WAUTOMA        FAIR      48  20  32 W13       30.40S
WISC RAPIDS    FAIR      48  19  31 NW8       30.41S
CAMP DOUGLAS   FAIR      48  22  35 W13       30.42S
$$

WIZ011>013-019>022-031-037>040-048>050-192300-
NORTHEAST WISCONSIN

CITY           SKY/WX    TMP DP  RH WIND       PRES   REMARKS
ANTIGO         FAIR      47  17  30 N6        30.36S
SHAWANO        FAIR      59   7  12 NE3       30.34R
OCONTO         FAIR      54   8  16 NW6       30.34S
STURGEON BAY   FAIR      50  10  20 N3        30.36R
GREEN BAY      FAIR      50  18  28 SW7       30.36R
MANITOWOC      FAIR      48  21  34 W9        30.37R
APPLETON       MOSUNNY   52  12  20 W9        30.35R
CLINTONVILLE   FAIR      53  10  17 W10       30.34S
OSHKOSH        FAIR      49  23  36 VRB5      30.38R
$$

WIZ032>034-041-042-053>061-192300-
SOUTHWEST WISCONSIN

CITY           SKY/WX    TMP DP  RH WIND       PRES   REMARKS
LA CROSSE      FAIR      51  25  36 NW9       30.45F
SPARTA         FAIR      49  20  32 W7        30.45S
VIROQUA        FAIR      45  25  45 NW5       30.44S
BOSCOBEL       FAIR      50  24  36 N10       30.45F
PRAIRIE DU CHI FAIR      48  22  37 NW9       30.46F
PLATTEVILLE    FAIR      49  31  48 NW10G16   30.44S
$$

WIZ056-057-062-063-064-067-068-192300-
SOUTH CENTRAL WISCONSIN

CITY           SKY/WX    TMP DP  RH WIND       PRES   REMARKS
REEDSBURG      FAIR      47  26  44 NW7       30.43R
BARABOO/DELLS  FAIR      46  24  40 W10       30.41S
LONE ROCK      NOT AVBL
MINERAL POINT  FAIR      48  32  53 W13       30.43R
MADISON        FAIR      48  24  39 NW8       30.42R
MIDDLETON      FAIR      49  28  43 NW8       30.42S
WATERTOWN      FAIR      45  27  48 W7        30.41S
MONROE         FAIR      50  25  37 W10G16    30.41S
JANESVILLE     SUNNY     52  21  30 N9        30.41S
$$

WIZ051-052-058>065-066-070>072-192300-
SOUTHEAST WISCONSIN

CITY           SKY/WX    TMP DP  RH WIND       PRES   REMARKS
MILWAUKEE      FAIR      49  20  31 NW7       30.40R
WAUKESHA       SUNNY     43  21  42 NW9       30.41R
MILWAUKEE/TIMM SUNNY     46  16  29 W10G16    30.40S
RACINE         FAIR      49  24  37 NW8       30.41R
BURLINGTON     FAIR      46  25  43 NW9       30.41R
KENOSHA        FAIR      49  26  41 NW9       30.40R
FOND DU LAC    FAIR      47  24  40 SW8       30.39R
SHEBOYGAN      FAIR      48  21  34 NW8       30.37S
WEST BEND      FAIR      46  19  34 NW8       30.39R
JUNEAU         FAIR      45  26  47 W7        30.42R
$$

LSZ147-162-192300-
LAKE SUPERIOR

STATION/POSITION TIME  TEMP    WIND        PRES    WAVE
                       AIR SEA DIR/SP/G            HT/PER
                 (UTC) (F)     (DEG/KT/KT) (MB)    (FT/S)
DEVILS ISLAND    2100   46     240/ 10/ 12 1030.0F
SAXON HARBOR     2130   43      60/  4/  5 1029.5S
$$

LMZ867-665-643>646-192300-
LAKE MICHIGAN

STATION/POSITION TIME  TEMP    WIND        PRES    WAVE
                       AIR SEA DIR/SP/G            HT/PER
                 (UTC) (F)     (DEG/KT/KT) (MB)    (FT/S)
NORTHPORT PIER   2140   39                 1027.4R
KEWAUNEE LAKESHO 2130   53      60/  3/  7 1026.9R
SHEBOYGAN LAKESH 2100   47     280/ 10/ 13 1028.7R
PORT WASHINGTON  2140   50     290/  7/ 10 1029.8R
MILWAUKEE LAKESH 2130   47     330/  7/  9   N/A
KENOSHA   LAKESH 2100   43                 1029.1
$$

TC  - TEMPERATURE IN CELSIUS
VSB - VISIBILITY IN STATUTE MILES
WCI - WIND CHILL INDEX
HX  - HEAT INDEX





USA.gov is the U.S. government's official web portal to all federal, state and local government web resources and services.